User: anonymous   Login
Location: Unspecified
(0.0000°N, 0.0000°E)
Time: 20:23:51
(UTC+00:00)
Language:

RAX-2 - Orbit

View from above orbital plane
View from above orbital plane
View from above satellite
View from above satellite

Ground track
Ground track

The orbit data is extracted from the following two-line orbital elements,

1 37853U 11061D   14324.84282300  .00010912  00000-0  71579-3 0  9676
2 37853 101.7035 069.3851 0209330 322.8209 148.8073 14.91757049165998
Epoch (UTC): 20 November 2014 20:13:39
Eccentricity: 0.0209330
inclination: 101.7035°
perigee height: 446 km
apogee height: 738 km
right ascension of ascending node: 69.3851°
argument of perigee: 322.8209°
revolutions per day: 14.91757049
mean anomaly at epoch: 148.8073°
orbit number at epoch: 16599

The dashed part of the orbit path shows where the satellite is in the earth's shadow,  

DLR